Change the Weather History Date:

Friday, August 2, 2013

  Actual Average (KLAS) Record (KLAS)
Temperature  
Mean Temperature 88 °F 92 °F  
Max Temperature 101 °F 104 °F 115 °F (1977)
Min Temperature 75 °F 81 °F 55 °F (1937)
Degree Days  
Heating Degree Days 0 0  
Month to date heating degree days 0  
Since 1 June heating degree days 1  
Since 1 July heating degree days 0  
Cooling Degree Days 23 27  
Month to date cooling degree days 55  
Year to date cooling degree days 2109  
Since 1 June cooling degree days 1559  
Growing Degree Days 38 (Base 50)    
Moisture  
Dew Point 27 °F    
Average Humidity 11    
Maximum Humidity 19    
Minimum Humidity 5    
Precipitation  
Precipitation 0.00 in 0.02 in 0.08 in (2000)
Month to date precipitation 0.03  
Year to date precipitation 2.51  
Snow  
Snow 0.00 in 0.00 in 0.00 in ()
Month to date snowfall 0.0  
Since 1 June snowfall 0.0  
Since 1 July snowfall 0.0  
Snow Depth -    
Sea Level Pressure  
Sea Level Pressure 29.79 in    
Wind  
Wind Speed 10 mph (SSW)    
Max Wind Speed 18 mph    
Max Gust Speed 25 mph    
Visibility 10 miles    
Events      
T = Trace of Precipitation, MM = Missing Value Source: NWS Daily Summary

Daily Weather History Graph

Daily Weather History Graph

Search for Another Location

Airport or City:

Trip Planner

Search our weather history database for the weather conditions in past years. The results will help you decide how hot, cold, wet, or windy it might be!

Date:

Astronomy

Aug. 02, 2013 Rise Set
Actual Time 5:48 AM PDT 7:44 PM PDT
Civil Twilight 5:20 AM PDT 8:12 PM PDT
Nautical Twilight 4:46 AM PDT 8:46 PM PDT
Astronomical Twilight 4:10 AM PDT 9:22 PM PDT
Moon 2:14 AM PDT (8/2) 4:43 PM PDT (8/2)
Length of Visible Light 14h 51m
Length of Day
13h 55m
Waning Crescent, 15% of the Moon is Illuminated
Aug 2
Waning Crescent
Aug 6
New
Aug 14
First Quarter
Aug 20
Full
Aug 28
Last Quarter

Hourly Weather History & Observations

Time (PDT) Temp. Dew Point Humidity Pressure Visibility Wind Dir Wind Speed Gust Speed Precip Events Conditions
12:56 AM 79.9 °F 23.0 °F 12% 29.78 in 10.0 mi South 9.2 mph - N/A   Clear
1:56 AM 83.8 °F 25.2 °F 12% 29.77 in 10.0 mi South 11.5 mph - N/A   Clear
2:56 AM 81.9 °F 27.1 °F 14% 29.78 in 10.0 mi South 11.5 mph - N/A   Clear
3:56 AM 79.9 °F 29.1 °F 16% 29.78 in 10.0 mi South 11.5 mph - N/A   Clear
4:56 AM 81.0 °F 29.1 °F 15% 29.78 in 10.0 mi South 13.8 mph - N/A   Clear
5:56 AM 75.9 °F 30.0 °F 19% 29.80 in 10.0 mi SW 12.7 mph - N/A   Clear
6:56 AM 75.9 °F 31.1 °F 19% 29.83 in 10.0 mi SW 10.4 mph - N/A   Clear
7:56 AM 79.9 °F 32.0 °F 18% 29.85 in 10.0 mi SW 10.4 mph - N/A   Clear
8:56 AM 84.9 °F 32.9 °F 15% 29.86 in 10.0 mi WSW 6.9 mph - N/A   Clear
9:56 AM 90.9 °F 30.0 °F 11% 29.85 in 10.0 mi SSW 10.4 mph - N/A   Clear
10:56 AM 92.8 °F 31.1 °F 11% 29.85 in 10.0 mi Calm Calm - N/A   Clear
11:56 AM 97.0 °F 34.9 °F 11% 29.82 in 10.0 mi SSE 8.1 mph 17.3 mph N/A   Clear
12:56 PM 99.9 °F 34.0 °F 10% 29.81 in 10.0 mi Variable 4.6 mph - N/A   Clear
1:56 PM 100.9 °F 30.0 °F 8% 29.78 in 10.0 mi SSE 16.1 mph 25.3 mph N/A   Clear
2:56 PM 101.8 °F 21.0 °F 6% 29.75 in 10.0 mi South 18.4 mph - N/A   Clear
3:56 PM 101.8 °F 22.1 °F 6% 29.74 in 10.0 mi WSW 13.8 mph 21.9 mph N/A   Clear
4:56 PM 101.8 °F 18.1 °F 5% 29.73 in 10.0 mi SSW 13.8 mph - N/A   Clear
5:56 PM 100.9 °F 17.1 °F 5% 29.74 in 10.0 mi SSW 15.0 mph - N/A   Clear
6:56 PM 97.0 °F 20.1 °F 6% 29.76 in 10.0 mi West 12.7 mph - N/A   Clear
7:56 PM 91.9 °F 23.0 °F 8% 29.78 in 10.0 mi SSW 10.4 mph - N/A   Clear
8:56 PM 90.0 °F 24.1 °F 9% 29.80 in 10.0 mi SSE 6.9 mph - N/A   Clear
9:56 PM 86.0 °F 26.1 °F 11% 29.81 in 10.0 mi Calm Calm - N/A   Clear
10:56 PM 81.9 °F 26.1 °F 13% 29.81 in 10.0 mi South 6.9 mph - N/A   Clear
11:56 PM 81.9 °F 26.1 °F 13% 29.81 in 10.0 mi SSW 6.9 mph - N/A   Clear